星链-32130 (STARLINK-32130)

导读 | 豆包AI

STARLINK-32130是美国SpaceX星链互联网星座的卫星,于2024年8月20日发射,属于星链星座扩容任务的组成部分,用于为全球提供低延迟、高速率的卫星互联网服务,尤其覆盖地面网络难以触达的偏远区域,依托近地轨道部署,支撑全球通信互联与商业航天网络布局。

Basic Information
目录编号:
60585
目录名称:
STARLINK-32130
国际标识:
2024-150C
轨道中心:
EARTH
卫星名称:
星链-32130 (STARLINK-32130)
卫星全名:
星链-32130 (STARLINK-32130)
卫星状态:
在轨 (已飞行572 天)
发射日期:
2024-08-20 UTC
国别 :
美国 (US)
星等 :
--
Orbit Information
数据来源 国际轨道数据 AOE轨道数据
星历时间 2026-03-15T05:15:57+0800
19小时前
查看轨道信息
2026-03-12T04:00:00+0800
3天前
查看轨道信息
半长轴 6853.429km 6853.365km
偏心率 0.0001167 0.0001133
轨道倾角 53.161° 53.161°
近地点辐角 99.400° 100.569°
升交点赤经 283.125° 297.305°
平近点角 260.714° 353.620°
近地点 474.492km 474.451km
远地点 476.092km 476.005km
周期 94.107分钟 94.106分钟
每日圈数 15.301743 15.301957
Detailed Information
卫星平台:
Starlink v2.0 mini
运营商:
太空探索技术公司
运营商所在国:
美国
制造商(研发单位):
太空探索技术公司
制造商所在国:
美国
使用方式:
暂无
Satellite Introduction
星链(Starlink)计划是由太空探索技术公司(SpaceX)提出的一个巨型低轨卫星互联网星座项目,计划在2019年至2024年间在太空搭建由约1.2万颗卫星组成的“星链”网络,其中1584颗将部署在地球上空550千米处的近地轨道,并从2020年开始工作。该卫星仍在工作。
2D Orbit Map
3D Orbit Map
Orbit Altitude Analysis Chart
Orbit Inclination Analysis Chart
Orbit Comprehensive Analysis Chart
View Comprehensive Chart